Weather History for Minneapolis Crystal, MN

Change the Weather History Date:

Thursday, August 28, 2014

  Actual Average Record
Temperature  
Mean Temperature 68 °F -  
Max Temperature 73 °F 77 °F 91 °F (2013)
Min Temperature 63 °F 56 °F 49 °F (1992)
Cooling Degree Days 3    
Growing Degree Days 18 (Base 50)    
Moisture  
Dew Point 60 °F    
Average Humidity 74    
Maximum Humidity 84    
Minimum Humidity 61    
Precipitation  
Precipitation 0.00 in - - ()
Sea Level Pressure  
Sea Level Pressure 30.00 in    
Wind  
Wind Speed 7 mph (ESE)    
Max Wind Speed 14 mph    
Max Gust Speed 18 mph    
Visibility 10 miles    
Events Rain    
Averages and records for this station are not official NWS values.
T = Trace of Precipitation, MM = Missing Value Source: NWS Daily Summary

Daily Weather History Graph

Daily Weather History Graph

Search for Another Location

Airport:

Trip Planner

Search our weather history database for the weather conditions in past years. The results will help you decide how hot, cold, wet, or windy it might be!

Date:

Astronomy

Aug. 28, 2014 Rise Set
Actual Time 6:30 AM CDT 7:57 PM CDT
Civil Twilight 5:59 AM CDT 8:28 PM CDT
Nautical Twilight 5:22 AM CDT 9:05 PM CDT
Astronomical Twilight 4:43 AM CDT 9:44 PM CDT
Moon 9:33 AM CDT (8/28) 9:11 PM CDT (8/28)
Length of Visible Light 14h 28m
Length of Day
13h 27m
Waxing Crescent, 9% of the Moon is Illuminated
Aug 28
Waxing Crescent
Sep 2
First Quarter
Sep 8
Full
Sep 15
Last Quarter
Sep 24
New

Hourly Weather History & Observations

Time (CDT) Temp. Dew Point Humidity Pressure Visibility Wind Dir Wind Speed Gust Speed Precip Events Conditions
12:53 AM 64.9 °F 55.9 °F 73% 30.12 in 10.0 mi ESE 4.6 mph - N/A   Clear
1:53 AM 64.0 °F 55.9 °F 75% 30.11 in 10.0 mi East 4.6 mph - N/A   Clear
2:53 AM 63.0 °F 55.0 °F 75% 30.10 in 10.0 mi SE 3.5 mph - N/A   Clear
3:53 AM 63.0 °F 55.0 °F 75% 30.08 in 10.0 mi ESE 4.6 mph - N/A   Clear
4:53 AM 63.0 °F 55.0 °F 75% 30.06 in 10.0 mi ESE 5.8 mph - N/A   Clear
5:53 AM 63.0 °F 55.0 °F 75% 30.06 in 10.0 mi SE 4.6 mph - N/A   Clear
6:53 AM 63.0 °F 55.9 °F 78% 30.06 in 10.0 mi SE 4.6 mph - N/A   Clear
7:53 AM 66.0 °F 55.9 °F 70% 30.06 in 10.0 mi SE 8.1 mph - N/A   Clear
9:53 AM 71.1 °F 57.0 °F 61% 30.06 in 10.0 mi SE 10.4 mph - N/A   Partly Cloudy
10:53 AM 72.0 °F 59.0 °F 64% 30.04 in 10.0 mi ESE 8.1 mph - N/A   Mostly Cloudy
11:53 AM 73.0 °F 59.0 °F 61% 30.03 in 10.0 mi SE 11.5 mph - N/A   Clear
12:53 PM 73.0 °F 60.1 °F 64% 30.01 in 10.0 mi ESE 8.1 mph - N/A   Mostly Cloudy
1:53 PM 73.0 °F 59.0 °F 61% 29.99 in 10.0 mi SE 9.2 mph - N/A   Mostly Cloudy
2:32 PM 72.0 °F 60.1 °F 66% 29.99 in 10.0 mi SE 9.2 mph - 0.00 in Rain Light Rain
2:53 PM 70.0 °F 62.1 °F 76% 29.99 in 7.0 mi SE 10.4 mph - 0.00 in Rain Light Rain
3:41 PM 70.0 °F 62.1 °F 76% 29.97 in 10.0 mi East 8.1 mph - 0.00 in   Overcast
3:51 PM 69.8 °F 62.6 °F 78% 29.97 in 10.0 mi ESE 6.9 mph - 0.00 in   Overcast
3:53 PM 70.0 °F 62.1 °F 76% 29.97 in 10.0 mi ESE 6.9 mph - 0.00 in   Overcast
4:53 PM 70.0 °F 63.0 °F 78% 29.95 in 10.0 mi ESE 9.2 mph - 0.00 in Rain Light Rain
5:32 PM 70.0 °F 63.0 °F 78% 29.95 in 10.0 mi ESE 8.1 mph - 0.00 in   Overcast
5:53 PM 70.0 °F 63.0 °F 78% 29.94 in 9.0 mi ESE 13.8 mph 18.4 mph 0.00 in Rain Light Rain
6:53 PM 70.0 °F 63.0 °F 78% 29.93 in 10.0 mi ESE 12.7 mph - 0.00 in   Overcast
7:53 PM 69.1 °F 62.1 °F 78% 29.92 in 10.0 mi SE 11.5 mph - N/A   Overcast
8:53 PM 69.1 °F 63.0 °F 81% 29.91 in 10.0 mi ESE 8.1 mph - N/A   Overcast
9:53 PM 69.1 °F 63.0 °F 81% 29.90 in 10.0 mi ESE 10.4 mph - N/A   Overcast
10:53 PM 69.1 °F 63.0 °F 81% 29.90 in 10.0 mi ESE 9.2 mph - N/A   Overcast
11:53 PM 68.0 °F 63.0 °F 84% 29.88 in 7.0 mi ESE 10.4 mph - N/A   Overcast